Regional Weather Roundup
Issued by NWS

Home | Current Version | Previous Version | Text Only | Print | Product List | Glossary Off
Versions: 1 2 3 4 5 6 7 8 9 10 11 12 13 14 15 16 17 18 19 20 21 22 23 24 25 26 27 28 29 30 31 32 33 34 35 36 37 38 39 40 41 42 43 44 45 46 47 48 49 50

000
ASUS43 KOAX 231010
RWRNE

WEATHER ROUNDUP FOR NEBRASKA
NATIONAL WEATHER SERVICE OMAHA NE
500 AM CDT WED APR 23 2014

NOTES: SATELLITE DATA IS BEING USED TO AUGMENT CLOUD COVER ABOVE
       12000 FEET.
       "FAIR" INDICATES FEW OR NO CLOUDS BELOW 12,000 FEET WITH NO
       SIGNIFICANT WEATHER AND/OR OBSTRUCTIONS TO VISIBILITY.

  * THESE STATIONS DO NOT REPORT WEATHER SUCH AS RAIN...SNOW OR FOG.

NEZ001>004-019>022-054>056-231100-
NEBRASKA PANHANDLE

CITY           SKY/WX    TMP DP  RH WIND       PRES   REMARKS
SCOTTSBLUFF    CLOUDY    54  43  66 E9        29.50F
ALLIANCE       CLOUDY    54  45  71 S20       29.50F
CHADRON        CLOUDY    61  47  59 S25G33    29.44S
KIMBALL        CLOUDY    52  36  54 CALM      29.55S
SIDNEY         CLOUDY    53  44  71 S8        29.56F
$$

NEZ057>060-069>072-079>082-231100-
SOUTHWEST NEBRASKA

CITY           SKY/WX    TMP DP  RH WIND       PRES   REMARKS
NORTH PLATTE   MOCLDY    58  36  43 SE15G30   29.63F
IMPERIAL       CLOUDY    59  45  59 S17G25    29.57F
LEXINGTON      CLOUDY    56  33  41 SE24G32   29.68F
MCCOOK         MOCLDY    59  42  53 S28G37    29.62F
OGALLALA       CLOUDY    55  43  64 SE9       29.56F
$$

NEZ005>010-023>029-035>040-094-231100-
NORTH CENTRAL NEBRASKA

CITY           SKY/WX    TMP DP  RH WIND       PRES   REMARKS
VALENTINE      MOCLDY    54  33  45 SE14      29.59F
AINSWORTH      MOCLDY    55  32  42 SE22G30   29.62F
BROKEN BOW     MOCLDY    50  33  52 SE14G24   29.69F
O`NEILL        CLOUDY    55  29  36 SE22G30   29.71F
ORD            PTCLDY    54  32  43 SE13G28   29.72F
THEDFORD       PTCLDY    57  34  41 SE18G24   29.62F
$$

NEZ041-046>049-061>064-073>077-083>087-231100-
SOUTH CENTRAL NEBRASKA

CITY           SKY/WX    TMP DP  RH WIND       PRES   REMARKS
GRAND ISLAND   LGT RAIN  53  38  56 S18G35    29.78R
AURORA         CLOUDY    53  37  55 SE18G29   29.79F
HASTINGS       LGT RAIN  54  40  59 SE20G30   29.75F
HEBRON         LGT RAIN  54  40  59 SE7       29.87R
HOLDREGE       CLOUDY    56  34  44 SE26G33   29.71S
KEARNEY *      CLOUDY    54  39  58 SE22G35   29.72F
YORK           CLOUDY    54  34  47 SE18G24   29.83F
$$

NEZ011>018-030>034-042>045-231100-
NORTHEAST NEBRASKA

CITY           SKY/WX    TMP DP  RH WIND       PRES   REMARKS
NORFOLK        CLOUDY    54  35  48 SE23G38   29.80F
ALBION         MOCLDY    53  35  51 SE18G24   29.78F
BLAIR          MOCLDY    53  35  51 SE12G17   29.92R
COLUMBUS *     MOCLDY    54  34  47 SE15G21   29.85F
FREMONT        PTCLDY    55  34  45 SE13      29.90S
TEKAMAH        PTCLDY    51  33  50 SE14      29.92R
$$

NEZ050>053-065>068-078-088>093-231100-
SOUTHEAST NEBRASKA

CITY           SKY/WX    TMP DP  RH WIND       PRES   REMARKS
LINCOLN        MOCLDY    56  35  45 SE14      29.91S
OMAHA EPPLEY   PTCLDY    53  34  48 SE13      29.93S
BEATRICE       MOCLDY    56  34  44 SE10      29.91R
FALLS CITY     MOCLDY    52  37  56 SE12      29.93F
NEBRASKA CITY  MOCLDY    54  36  52 SE12G18   29.94S
PLATTSMOUTH    PTCLDY    54  33  44 SE10      29.93S
$$

NEZ044-045-051>053-067-231100-
OMAHA AREA

CITY           SKY/WX    TMP DP  RH WIND       PRES   REMARKS
OMAHA EPPLEY   PTCLDY    53  34  48 SE13      29.93S
BLAIR          MOCLDY    53  35  51 SE12G17   29.92R
FREMONT        PTCLDY    55  34  45 SE13      29.90S
MILLARD        PTCLDY    53  35  50 SE8       29.92S
OFFUTT AFB     CLEAR     50  36  58 SE9       29.93S
PLATTSMOUTH    PTCLDY    54  33  44 SE10      29.93S
WAHOO          PTSUNNY   53  34  48 SE15      29.90F
$$



USA.gov is the U.S. government's official web portal to all federal, state and local government web resources and services.